Total_Precipitation_Accumulation
-0.35 -0.31 -0.31 -0.47 -0.34 -0.34 -0.22 -0.49 -0.93 -0.93 -0.77 -0.64 -0.55 -0.46 -0.46 -0.39 -0.17 -0.03 -0.03 0.10 0.31 0.59 0.59 0.52 0.44 0.37 0.37 0.39 0.41 0.41 0.36 0.37 0.29 0.31 0.31 0.36 0.44 0.46 0.46 0.45 0.44 0.62 0.62 0.73 0.79 0.79 0.70 0.62 0.59 0.59 0.73 0.53 0.59 0.56 0.56 0.47 0.44 0.37 0.37 0.29 0.24 0.28 0.28 0.32 0.35 0.35 0.34 0.39 0.44
-0.98 -1.17 -1.17 -1.05 -0.85 -0.85 -0.70 -0.70 -1.07 -1.07 -1.38 -0.83 -0.48 -0.32 -0.32 -0.24 -0.03 0.05 0.05 0.10 0.27 0.42 0.42 0.68 0.71 0.60 0.60 0.50 0.32 0.32 0.34 0.37 0.28 0.27 0.27 0.27 0.34 0.38 0.38 0.38 0.37 0.48 0.48 0.56 0.66 0.66 0.78 0.82 0.72 0.72 0.60 0.56 0.64 0.62 0.62 0.52 0.49 0.46 0.46 0.35 0.38 0.31 0.31 0.35 0.37 0.37 0.36 0.40 0.44
-0.57 -0.91 -0.91 -0.90 -0.62 -0.62 -0.59 -0.63 -0.70 -0.70 -1.17 -1.00 -0.35 -0.03 -0.03 0.02 0.02 0.19 0.19 0.35 0.43 0.50 0.50 0.78 0.85 0.79 0.79 0.73 0.58 0.58 0.59 0.47 0.39 0.33 0.33 0.33 0.33 0.35 0.35 0.37 0.35 0.23 0.23 0.22 0.34 0.34 0.58 0.91 0.78 0.78 0.73 0.65 0.61 0.58 0.58 0.52 0.54 0.55 0.55 0.49 0.52 0.42 0.42 0.40 0.40 0.40 0.41 0.42 0.47
0.30 -0.04 -0.04 -0.27 -0.27 -0.27 -0.29 -0.36 -0.50 -0.50 -0.65 -0.54 -0.29 0.01 0.01 0.30 0.31 0.29 0.29 0.34 0.43 0.55 0.55 0.79 0.80 0.86 0.86 0.86 0.89 0.89 0.72 0.69 0.69 0.59 0.59 0.53 0.42 0.37 0.37 0.37 0.40 0.42 0.42 0.18 0.09 0.09 0.24 0.37 0.47 0.47 0.65 0.62 0.60 0.59 0.59 0.50 0.47 0.54 0.54 0.46 0.56 0.56 0.56 0.46 0.41 0.41 0.40 0.41 0.40
0.90 0.91 0.91 0.40 0.12 0.12 -0.01 -0.02 -0.23 -0.23 -0.33 -0.37 -0.30 -0.13 -0.13 0.15 0.48 0.46 0.46 0.44 0.45 0.50 0.50 0.69 0.76 0.79 0.79 0.65 0.68 0.68 0.84 0.94 1.05 1.07 1.07 1.05 0.73 0.59 0.59 0.53 0.43 0.46 0.46 0.41 0.47 0.47 0.52 0.47 0.36 0.36 0.59 0.58 0.58 0.55 0.55 0.53 0.47 0.45 0.45 0.44 0.47 0.48 0.48 0.46 0.42 0.42 0.38 0.39 0.34
0.48 0.67 0.67 0.88 0.65 0.65 0.46 0.20 -0.01 -0.01 0.06 -0.07 -0.07 0.05 0.05 0.14 0.55 0.58 0.58 0.56 0.51 0.41 0.41 0.54 0.59 0.58 0.58 0.50 0.46 0.46 0.70 0.91 1.11 1.24 1.24 1.24 1.06 0.98 0.98 0.96 0.83 0.68 0.68 0.54 0.60 0.60 0.75 0.62 0.52 0.52 0.50 0.56 0.50 0.44 0.44 0.44 0.49 0.43 0.43 0.38 0.39 0.40 0.40 0.43 0.35 0.35 0.37 0.38 0.32
0.52 0.48 0.48 0.70 0.73 0.73 0.72 0.58 0.33 0.33 0.12 0.09 0.10 0.15 0.15 0.20 0.36 0.47 0.47 0.54 0.52 0.48 0.48 0.55 0.58 0.61 0.61 0.60 0.63 0.63 0.65 0.70 0.83 1.01 1.01 1.18 1.22 1.25 1.25 1.16 1.07 1.00 1.00 0.79 0.75 0.75 1.02 0.85 0.69 0.69 0.58 0.51 0.50 0.39 0.39 0.36 0.39 0.31 0.31 0.31 0.30 0.34 0.34 0.34 0.30 0.30 0.30 0.31 0.26
0.40 0.33 0.33 0.46 0.54 0.54 0.62 0.73 0.90 0.90 0.59 0.51 0.41 0.37 0.37 0.31 0.17 0.24 0.24 0.30 0.38 0.28 0.28 0.34 0.42 0.48 0.48 0.52 0.58 0.58 0.68 0.65 0.60 0.62 0.62 0.70 0.84 1.18 1.18 1.26 1.28 1.25 1.25 1.10 1.11 1.11 1.06 0.96 0.82 0.82 0.62 0.50 0.48 0.45 0.45 0.36 0.32 0.25 0.25 0.25 0.23 0.23 0.23 0.24 0.25 0.25 0.27 0.28 0.27
0.25 0.33 0.33 0.44 0.55 0.55 0.58 0.69 0.99 0.99 1.05 0.97 0.72 0.49 0.49 0.37 0.24 0.21 0.21 0.22 0.27 0.36 0.36 0.44 0.38 0.37 0.37 0.42 0.50 0.50 0.56 0.62 0.58 0.57 0.57 0.58 0.59 0.69 0.69 0.85 0.95 0.95 0.95 0.97 0.79 0.79 0.89 0.85 0.76 0.76 0.60 0.46 0.36 0.40 0.40 0.34 0.24 0.25 0.25 0.28 0.26 0.25 0.25 0.23 0.22 0.22 0.23 0.21 0.28
0.26 0.28 0.28 0.07 0.21 0.21 0.59 0.79 0.82 0.82 0.67 0.58 0.53 0.51 0.51 0.46 0.63 0.61 0.61 0.53 0.50 0.53 0.53 0.58 0.48 0.45 0.45 0.49 0.42 0.42 0.43 0.47 0.53 0.51 0.51 0.50 0.50 0.47 0.47 0.43 0.56 0.64 0.64 0.73 0.50 0.50 0.69 0.67 0.64 0.64 0.58 0.48 0.43 0.35 0.35 0.41 0.41 0.38 0.38 0.33 0.33 0.34 0.34 0.28 0.20 0.20 0.18 0.22 0.21
0.21 0.18 0.18 0.13 0.24 0.24 0.44 0.63 0.91 0.91 1.35 1.26 0.94 0.63 0.63 0.46 0.57 0.67 0.67 0.68 0.82 0.96 0.96 0.99 0.82 0.78 0.78 0.71 0.54 0.54 0.31 0.18 0.23 0.35 0.35 0.34 0.30 0.20 0.20 0.09 0.23 0.33 0.33 0.12 0.18 0.18 0.28 0.45 0.46 0.46 0.47 0.45 0.43 0.44 0.44 0.44 0.48 0.49 0.49 0.42 0.31 0.22 0.22 0.25 0.29 0.29 0.26 0.23 0.21
0.25 0.28 0.28 0.23 0.28 0.28 0.38 0.50 0.52 0.52 0.33 0.31 0.34 0.30 0.30 0.40 0.49 0.53 0.53 0.52 0.58 0.67 0.67 0.76 0.74 0.85 0.85 0.87 0.72 0.72 0.53 0.27 -0.00 0.05 0.05 0.13 0.11 0.07 0.07 -0.07 -0.21 -0.01 -0.01 0.10 0.20 0.20 0.21 0.33 0.40 0.40 0.41 0.37 0.39 0.42 0.42 0.43 0.47 0.52 0.52 0.47 0.39 0.34 0.34 0.21 0.21 0.21 0.23 0.22 0.25
0.20 0.26 0.26 0.24 0.28 0.28 0.36 0.43 0.46 0.46 0.18 0.06 -0.02 -0.00 -0.00 0.06 0.11 0.14 0.14 0.10 0.15 0.18 0.18 0.21 0.22 0.32 0.32 0.34 0.28 0.28 0.23 0.13 -0.01 -0.07 -0.07 -0.05 0.02 0.09 0.09 0.10 -0.22 0.09 0.09 0.19 0.24 0.24 0.24 0.19 0.27 0.27 0.32 0.33 0.35 0.36 0.36 0.31 0.32 0.38 0.38 0.44 0.44 0.40 0.40 0.33 0.23 0.23 0.21 0.22 0.25
0.12 0.21 0.21 0.24 0.27 0.27 0.26 0.29 0.30 0.30 0.11 -0.07 -0.21 -0.23 -0.23 -0.18 -0.11 -0.11 -0.11 -0.12 -0.09 -0.00 -0.00 0.02 0.00 0.00 0.00 -0.07 -0.09 -0.09 -0.08 -0.07 -0.08 -0.07 -0.07 -0.09 -0.08 -0.03 -0.03 0.02 0.04 0.05 0.05 0.06 0.09 0.09 0.12 0.13 0.14 0.14 0.18 0.22 0.26 0.29 0.29 0.22 0.23 0.24 0.24 0.33 0.43 0.45 0.45 0.42 0.34 0.34 0.33 0.26 0.23
0.11 0.15 0.15 0.22 0.30 0.30 0.24 0.17 0.13 0.13 0.13 0.14 0.10 0.10 0.10 0.12 0.16 0.15 0.15 0.11 0.06 0.00 0.00 -0.04 -0.03 0.05 0.05 -0.03 -0.10 -0.10 -0.13 -0.12 -0.09 -0.03 -0.03 -0.03 -0.03 -0.02 -0.02 -0.00 0.01 0.02 0.02 0.04 0.05 0.05 0.07 0.09 0.12 0.12 0.13 0.14 0.16 0.19 0.19 0.16 0.19 0.26 0.26 0.30 0.36 0.42 0.42 0.46 0.45 0.45 0.47 0.42 0.33
0.07 0.12 0.12 0.20 0.26 0.26 0.20 0.18 0.16 0.16 0.13 0.09 0.07 0.05 0.05 0.06 0.11 0.12 0.12 0.12 0.09 0.04 0.04 -0.00 -0.03 -0.06 -0.06 -0.06 -0.10 -0.10 -0.13 -0.12 -0.10 -0.04 -0.04 -0.02 -0.01 -0.01 -0.01 0.00 0.01 0.00 0.00 0.02 0.03 0.03 0.04 0.08 0.09 0.09 0.12 0.12 0.13 0.13 0.13 0.14 0.17 0.20 0.20 0.27 0.33 0.39 0.39 0.43 0.44 0.44 0.44 0.43 0.41
0.01 0.10 0.10 0.12 0.12 0.12 0.09 0.08 0.08 0.08 0.13 0.10 0.08 0.05 0.05 0.02 0.02 0.01 0.01 0.01 0.00 -0.02 -0.02 -0.03 -0.04 -0.04 -0.04 -0.05 -0.06 -0.06 -0.09 -0.13 -0.13 -0.10 -0.10 -0.03 -0.03 -0.01 -0.01 -0.01 0.01 0.01 0.01 0.01 0.01 0.01 0.02 0.05 0.07 0.07 0.11 0.14 0.13 0.16 0.16 0.15 0.15 0.17 0.17 0.18 0.26 0.34 0.34 0.40 0.36 0.36 0.42 0.43 0.39
0.00 0.00 0.00 0.00 0.01 0.01 0.04 0.05 0.03 0.03 0.01 0.02 0.02 0.01 0.01 0.01 0.05 0.06 0.06 0.04 0.03 0.03 0.03 0.02 0.01 -0.00 -0.00 -0.04 -0.07 -0.07 -0.08 -0.11 -0.09 -0.05 -0.05 -0.04 -0.03 0.02 0.02 0.02 0.01 0.01 0.01 0.02 0.01 0.01 0.01 0.02 0.04 0.04 0.09 0.12 0.09 0.17 0.17 0.21 0.19 0.16 0.16 0.15 0.12 0.11 0.11 0.16 0.15 0.15 0.22 0.27 0.34
0.00 0.00 0.00 0.00 0.00 0.00 0.00 0.02 0.04 0.04 0.04 0.06 0.06 0.01 0.01 0.02 0.06 0.13 0.13 0.10 0.09 0.08 0.08 0.06 0.03 0.02 0.02 0.00 0.01 0.01 0.00 -0.01 -0.01 -0.01 -0.01 -0.00 0.04 0.03 0.03 0.03 0.03 0.04 0.04 0.04 0.02 0.02 0.02 0.02 0.04 0.04 0.07 0.09 0.07 0.09 0.09 0.19 0.21 0.20 0.20 0.17 0.15 0.12 0.12 0.13 0.11 0.11 0.13 0.15 0.20
0.00 0.00 0.00 0.00 0.00 0.00 0.00 0.00 0.01 0.01 0.07 0.09 0.06 0.05 0.05 0.04 0.06 0.09 0.09 0.10 0.14 0.16 0.16 0.13 0.07 0.04 0.04 0.02 0.03 0.03 0.04 0.05 0.04 0.04 0.04 0.03 0.03 0.03 0.03 0.03 0.03 0.03 0.03 0.03 0.02 0.02 0.02 0.03 0.03 0.03 0.04 0.05 0.05 0.07 0.07 0.13 0.18 0.22 0.22 0.23 0.21 0.17 0.17 0.15 0.12 0.12 0.09 0.10 0.12
0.00 0.00 0.00 0.00 0.00 0.00 0.00 0.00 0.00 0.00 0.02 0.03 0.05 0.06 0.06 0.08 0.09 0.06 0.06 0.09 0.11 0.11 0.11 0.12 0.10 0.07 0.07 0.04 0.03 0.03 0.04 0.04 0.04 0.04 0.04 0.03 0.03 0.02 0.02 0.03 0.03 0.03 0.03 0.02 0.02 0.02 0.01 0.01 0.01 0.01 0.02 0.02 0.03 0.04 0.04 0.07 0.11 0.15 0.15 0.20 0.22 0.20 0.20 0.18 0.14 0.14 0.10 0.07 0.07
0.00 0.00 0.00 0.00 0.00 0.00 0.00 0.00 0.00 0.00 0.01 0.01 0.02 0.04 0.04 0.06 0.08 0.09 0.09 0.10 0.10 0.06 0.06 0.05 0.05 0.07 0.07 0.07 0.03 0.03 0.03 0.04 0.04 0.04 0.04 0.04 0.04 0.03 0.03 0.03 0.04 0.04 0.04 0.01 0.01 0.01 0.00 0.00 0.01 0.01 0.01 0.01 0.02 0.02 0.02 0.04 0.06 0.08 0.08 0.12 0.17 0.21 0.21 0.16 0.16 0.16 0.13 0.09 0.05
0.00 0.00 0.00 0.00 0.00 0.00 0.00 0.00 0.00 0.00 0.01 0.01 0.02 0.03 0.03 0.05 0.07 0.08 0.08 0.10 0.09 0.08 0.08 0.07 0.05 0.05 0.05 0.06 0.06 0.06 0.06 0.06 0.06 0.05 0.05 0.05 0.05 0.05 0.05 0.04 0.04 0.04 0.04 0.02 0.01 0.01 0.00 0.00 0.00 0.00 0.01 0.01 0.02 0.02 0.02 0.02 0.02 0.04 0.04 0.05 0.08 0.06 0.06 0.09 0.11 0.11 0.11 0.10 0.07
0.00 0.00 0.00 0.00 0.00 0.00 0.00 0.00 0.00 0.00 0.00 0.01 0.01 0.02 0.02 0.03 0.05 0.07 0.07 0.13 0.11 0.10 0.10 0.09 0.08 0.08 0.08 0.09 0.05 0.05 0.06 0.06 0.05 0.05 0.05 0.05 0.05 0.05 0.05 0.05 0.04 0.03 0.03 0.02 0.01 0.01 0.00 0.00 0.01 0.01 0.00 0.01 0.01 0.02 0.02 0.02 0.01 0.02 0.02 0.02 0.05 0.04 0.04 0.05 0.05 0.05 0.06 0.06 0.06
0.00 0.00 0.00 0.00 0.00 0.00 0.00 0.00 0.00 0.00 0.00 0.01 0.01 0.01 0.01 0.02 0.03 0.05 0.05 0.10 0.12 0.14 0.14 0.14 0.12 0.12 0.12 0.13 0.12 0.12 0.11 0.08 0.06 0.05 0.05 0.05 0.05 0.05 0.05 0.05 0.04 0.03 0.03 0.02 0.01 0.01 0.00 0.00 0.00 0.00 0.02 0.02 0.02 0.02 0.02 0.02 0.01 0.01 0.01 0.02 0.04 0.02 0.02 0.03 0.02 0.02 0.02 0.02 0.02
0.00 0.00 0.00 0.00 0.00 0.00 0.00 0.00 0.00 0.00 0.00 0.00 0.01 0.01 0.01 0.01 0.02 0.03 0.03 0.07 0.08 0.12 0.12 0.15 0.15 0.15 0.15 0.16 0.17 0.17 0.12 0.10 0.07 0.06 0.06 0.05 0.05 0.05 0.05 0.05 0.03 0.03 0.03 0.02 0.02 0.02 0.01 0.00 0.01 0.01 0.01 0.02 0.02 0.02 0.02 0.02 0.01 0.01 0.01 0.02 0.02 0.01 0.01 0.01 0.00 0.00 0.00 0.00 0.00
0.00 0.00 0.00 0.00 0.00 0.00 0.00 0.00 0.00 0.00 0.00 0.00 0.01 0.01 0.01 0.01 0.01 0.02 0.02 0.04 0.06 0.07 0.07 0.11 0.13 0.13 0.13 0.14 0.17 0.17 0.15 0.10 0.10 0.08 0.08 0.06 0.05 0.05 0.05 0.04 0.03 0.03 0.03 0.03 0.02 0.02 0.02 0.01 0.02 0.02 0.02 0.02 0.01 0.01 0.01 0.01 0.01 0.01 0.01 0.02 0.01 0.01 0.01 0.00 -0.00 -0.00 -0.00 -0.00 -0.00
0.00 0.00 0.00 0.00 0.00 0.00 0.00 0.00 0.00 0.00 0.00 0.00 0.01 0.01 0.01 0.01 0.01 0.02 0.02 0.02 0.03 0.05 0.05 0.07 0.09 0.08 0.08 0.12 0.12 0.12 0.11 0.13 0.12 0.10 0.10 0.08 0.06 0.05 0.05 0.04 0.03 0.03 0.03 0.04 0.04 0.04 0.03 0.05 0.03 0.03 0.03 0.03 0.02 -0.00 -0.00 0.00 0.01 0.01 0.01 0.01 0.00 0.01 0.01 0.00 -0.00 -0.00 -0.01 -0.00 -0.00
0.00 0.00 0.00 0.00 0.00 0.00 0.00 0.00 0.00 0.00 0.00 0.00 0.01 0.01 0.01 0.01 0.01 0.01 0.01 0.02 0.03 0.04 0.04 0.05 0.04 0.05 0.05 0.07 0.08 0.08 0.09 0.12 0.12 0.14 0.14 0.12 0.09 0.07 0.07 0.05 0.04 0.03 0.03 0.05 0.06 0.06 0.06 0.10 0.05 0.05 0.04 0.04 0.03 0.01 0.01 -0.00 -0.00 0.00 0.00 0.00 0.00 0.01 0.01 0.01 0.00 0.00 0.02 0.02 -0.00
0.00 0.00 0.00 0.00 0.00 0.00 0.00 0.00 0.00 0.00 0.00 0.00 0.00 0.01 0.01 0.01 0.01 0.01 0.01 0.01 0.02 0.02 0.02 0.03 0.04 0.04 0.04 0.05 0.05 0.05 0.06 0.08 0.11 0.12 0.12 0.12 0.10 0.08 0.08 0.07 0.05 0.04 0.04 0.05 0.10 0.10 0.15 0.13 0.09 0.09 0.05 0.04 0.03 0.02 0.02 0.01 -0.00 -0.01 -0.01 -0.00 -0.00 -0.00 -0.00 0.00 0.02 0.02 0.03 0.03 0.02
0.00 0.00 0.00 0.00 0.00 0.00 0.00 0.00 0.00 0.00 0.00 0.00 0.00 0.01 0.01 0.01 0.01 0.01 0.01 0.01 0.02 0.02 0.02 0.03 0.03 0.04 0.04 0.04 0.04 0.04 0.05 0.06 0.08 0.08 0.08 0.09 0.09 0.08 0.08 0.08 0.06 0.05 0.05 0.05 0.09 0.09 0.15 0.13 0.09 0.09 0.06 0.04 0.03 0.02 0.02 0.01 0.00 0.00 0.00 0.01 0.00 0.01 0.01 0.01 0.03 0.03 0.03 0.02 0.02
0.01 0.01 0.01 0.01 0.00 0.00 0.00 0.00 0.00 0.00 0.00 0.00 0.00 0.00 0.00 0.01 0.01 0.01 0.01 0.01 0.02 0.02 0.02 0.03 0.03 0.04 0.04 0.03 0.04 0.04 0.04 0.05 0.05 0.06 0.06 0.06 0.07 0.07 0.07 0.07 0.07 0.06 0.06 0.06 0.12 0.12 0.14 0.09 0.07 0.07 0.05 0.04 0.03 0.02 0.02 0.02 0.02 0.02 0.02 0.02 0.00 0.02 0.02 0.02 0.03 0.03 0.02 0.01 -0.00
0.01 0.01 0.01 0.01 0.01 0.01 0.00 0.00 0.01 0.01 0.01 0.01 0.01 0.01 0.01 0.01 0.01 0.01 0.01 0.02 0.02 0.02 0.02 0.02 0.02 0.03 0.03 0.03 0.03 0.03 0.04 0.04 0.04 0.05 0.05 0.05 0.05 0.06 0.06 0.07 0.06 0.06 0.06 0.09 0.12 0.12 0.11 0.07 0.07 0.07 0.06 0.04 0.03 0.02 0.02 0.02 0.02 0.03 0.03 0.02 0.01 0.02 0.02 0.03 0.03 0.03 0.01 0.00 -0.00
0.01 0.01 0.01 0.01 0.01 0.01 0.01 0.01 0.01 0.01 0.01 0.01 0.01 0.01 0.01 0.02 0.02 0.02 0.02 0.02 0.02 0.02 0.02 0.02 0.02 0.02 0.02 0.02 0.03 0.03 0.04 0.04 0.04 0.04 0.04 0.05 0.05 0.06 0.06 0.06 0.06 0.06 0.06 0.08 0.09 0.09 0.07 0.06 0.07 0.07 0.07 0.04 0.03 0.03 0.03 0.03 0.03 0.05 0.05 0.02 0.01 0.00 0.00 0.02 0.02 0.02 0.01 0.00 0.00
0.01 0.01 0.01 0.01 0.01 0.01 0.01 0.01 0.01 0.01 0.01 0.01 0.01 0.01 0.01 0.02 0.02 0.02 0.02 0.02 0.02 0.02 0.02 0.02 0.01 0.01 0.01 0.02 0.02 0.02 0.03 0.03 0.03 0.04 0.04 0.04 0.06 0.07 0.07 0.07 0.06 0.06 0.06 0.05 0.05 0.05 0.03 0.02 0.03 0.03 0.05 0.04 0.06 0.08 0.08 0.07 0.06 0.06 0.06 0.04 0.02 0.02 0.02 0.02 0.03 0.03 0.01 -0.00 0.01
0.01 0.01 0.01 0.01 0.01 0.01 0.01 0.01 0.01 0.01 0.01 0.01 0.01 0.02 0.02 0.02 0.02 0.02 0.02 0.02 0.02 0.02 0.02 0.02 0.01 0.01 0.01 0.02 0.02 0.02 0.02 0.02 0.03 0.03 0.03 0.03 0.06 0.07 0.07 0.06 0.05 0.02 0.02 0.02 0.03 0.03 0.03 0.02 0.03 0.03 0.04 0.05 0.08 0.09 0.09 0.08 0.05 0.04 0.04 0.04 0.03 0.02 0.02 0.03 0.03 0.03 0.02 -0.00 0.01
0.01 0.01 0.01 0.01 0.01 0.01 0.01 0.01 0.01 0.01 0.01 0.01 0.01 0.01 0.01 0.02 0.02 0.01 0.01 0.02 0.02 0.02 0.02 0.02 0.02 0.02 0.02 0.02 0.01 0.01 0.01 0.01 0.02 0.02 0.02 0.03 0.03 0.05 0.05 0.05 0.05 0.01 0.01 0.02 0.03 0.03 0.03 0.03 0.03 0.03 0.03 0.04 0.05 0.06 0.06 0.06 0.03 0.03 0.03 0.03 0.02 0.02 0.02 0.02 0.03 0.03 0.01 0.00 -0.00
0.00 0.00 0.00 0.01 0.01 0.01 0.01 0.01 0.01 0.01 0.01 0.01 0.01 0.01 0.01 0.02 0.02 0.01 0.01 0.02 0.02 0.02 0.02 0.02 0.02 0.02 0.02 0.02 0.01 0.01 0.01 0.01 0.01 0.02 0.02 0.02 0.02 0.04 0.04 0.04 0.03 0.02 0.02 0.03 0.04 0.04 0.05 0.05 0.04 0.04 0.03 0.04 0.04 0.04 0.04 0.03 0.03 0.03 0.03 0.02 0.02 0.01 0.01 0.02 0.02 0.02 0.01 0.01 0.00
0.00 0.00 0.00 0.01 0.01 0.01 0.01 0.01 0.01 0.01 0.01 0.01 0.01 0.01 0.01 0.01 0.01 0.01 0.01 0.02 0.02 0.02 0.02 0.01 0.01 0.01 0.01 0.01 0.01 0.01 0.01 0.01 0.01 0.01 0.01 0.01 0.01 0.02 0.02 0.03 0.02 0.01 0.01 0.03 0.03 0.03 0.04 0.04 0.03 0.03 0.03 0.03 0.03 0.03 0.03 0.03 0.03 0.03 0.03 0.02 0.02 0.01 0.01 0.01 0.01 0.01 0.01 0.00 -0.00
-0.00 0.00 0.00 0.00 0.01 0.01 0.01 0.01 0.01 0.01 0.01 0.01 0.01 0.01 0.01 0.01 0.01 0.01 0.01 0.01 0.02 0.02 0.02 0.02 0.01 0.01 0.01 0.01 0.01 0.01 0.01 0.01 0.01 0.01 0.01 0.01 0.01 0.01 0.01 0.00 0.01 0.00 0.00 0.01 0.02 0.02 0.03 0.03 0.02 0.02 0.03 0.03 0.03 0.03 0.03 0.02 0.03 0.03 0.03 0.02 0.01 0.01 0.01 0.00 0.01 0.01 0.00 -0.01 -0.02
-0.00 -0.00 -0.00 -0.00 0.00 0.00 0.00 0.01 0.01 0.01 0.01 0.01 0.01 0.01 0.01 0.01 0.01 0.01 0.01 0.02 0.02 0.02 0.02 0.02 0.01 0.01 0.01 0.01 0.01 0.01 0.01 0.01 0.01 0.01 0.01 0.01 0.01 0.01 0.01 0.00 0.00 -0.01 -0.01 -0.01 0.01 0.01 0.02 0.01 0.01 0.01 0.02 0.03 0.03 0.02 0.02 0.02 0.03 0.03 0.03 0.02 0.01 -0.00 -0.00 -0.00 0.00 0.00 -0.01 -0.02 -0.02